Winona, MN

8:24 AM CDT on October 18, 2017 (GMT -0500)
Winona Municipal-Conrad

Weather History for KONA - October, 2013

Change the Weather History Date:

Friday, October 25, 2013

  Actual Average Record
Temperature  
Mean Temperature 42 °F -  
Max Temperature 53 °F 64 °F 72 °F (1993)
Min Temperature 30 °F 44 °F 30 °F (2013)
Degree Days  
Heating Degree Days 24    
Moisture  
Dew Point 31 °F    
Average Humidity 67    
Maximum Humidity 100    
Minimum Humidity 43    
Precipitation  
Precipitation 0.00 in - - ()
Sea Level Pressure  
Sea Level Pressure 30.14 in    
Wind  
Wind Speed 4 mph (SW)    
Max Wind Speed 18 mph    
Max Gust Speed 32 mph    
Visibility 10 miles    
Events      
Averages and records for this station are not official NWS values.
T = Trace of Precipitation, MM = Missing Value Source: NWS Daily Summary

Daily Weather History Graph

Daily Weather History Graph

Search for Another Location

Airport or City:

Trip Planner

Search our weather history database for the weather conditions in past years. The results will help you decide how hot, cold, wet, or windy it might be!

Date:

Astronomy

Oct. 25, 2013 Rise Set
Actual Time 7:34 AM CDT 6:06 PM CDT
Civil Twilight 7:04 AM CDT 6:36 PM CDT
Nautical Twilight 6:31 AM CDT 7:09 PM CDT
Astronomical Twilight 5:57 AM CDT 7:43 PM CDT
Moon 11:23 PM CDT (10/25) 1:18 PM CDT (10/25)
Length of Visible Light 11h 31m
Length of Day
10h 31m
Waning Gibbous, 62% of the Moon is Illuminated
Oct 25
Waning Gibbous
Oct 26
Last Quarter
Nov 3
New
Nov 9
First Quarter
Nov 17
Full

Hourly Weather History & Observations

Time (CDT) Temp. Windchill Dew Point Humidity Pressure Visibility Wind Dir Wind Speed Gust Speed Precip Events Conditions
12:11 AM 33.8 °F - 30.2 °F 87% 30.32 in 10.0 mi Calm Calm - N/A   Overcast
12:31 AM 33.8 °F - 30.2 °F 87% 30.33 in 10.0 mi Calm Calm - N/A   Overcast
12:51 AM 33.8 °F - 32.0 °F 93% 30.33 in 10.0 mi Calm Calm - N/A   Overcast
1:11 AM 33.8 °F - 30.2 °F 87% 30.33 in 10.0 mi Calm Calm - N/A   Overcast
1:31 AM 33.8 °F - 30.2 °F 87% 30.33 in 10.0 mi Calm Calm - N/A   Overcast
1:51 AM 33.8 °F - 30.2 °F 87% 30.33 in 10.0 mi Calm Calm - N/A   Overcast
2:11 AM 33.8 °F - 30.2 °F 87% 30.33 in 10.0 mi Calm Calm - N/A   Mostly Cloudy
2:31 AM 30.2 °F - 26.6 °F 86% 30.33 in 10.0 mi Calm Calm - N/A   Scattered Clouds
2:52 AM 32.0 °F - 28.4 °F 87% 30.33 in 10.0 mi Calm Calm - N/A   Scattered Clouds
3:11 AM 30.2 °F - 28.4 °F 93% 30.33 in 10.0 mi Calm Calm - N/A   Scattered Clouds
3:31 AM 30.2 °F - 26.6 °F 86% 30.34 in 10.0 mi Calm Calm - N/A   Clear
3:52 AM 30.2 °F - 28.4 °F 93% 30.33 in 10.0 mi Calm Calm - N/A   Clear
4:11 AM 30.2 °F - 28.4 °F 93% 30.33 in 10.0 mi Calm Calm - N/A   Clear
4:31 AM 30.2 °F 25.4 °F 28.4 °F 93% 30.34 in 10.0 mi NNW 4.6 mph - N/A   Clear
4:52 AM 32.0 °F - 30.2 °F 93% 30.33 in 10.0 mi Calm Calm - N/A   Clear
5:11 AM 30.2 °F - 28.4 °F 93% 30.34 in 10.0 mi Calm Calm - N/A   Clear
5:31 AM 30.2 °F - 28.4 °F 93% 30.33 in 10.0 mi Calm Calm - N/A   Clear
5:52 AM 30.2 °F - 28.4 °F 93% 30.34 in 10.0 mi Calm Calm - N/A   Clear
6:11 AM 30.2 °F - 28.4 °F 93% 30.34 in 10.0 mi Calm Calm - N/A   Clear
6:31 AM 30.2 °F - 28.4 °F 93% 30.34 in 10.0 mi Calm Calm - N/A   Clear
6:51 AM 30.2 °F - 28.4 °F 93% 30.33 in 10.0 mi Calm Calm - N/A   Clear
7:11 AM 30.2 °F - 28.4 °F 93% 30.33 in 10.0 mi Calm Calm - N/A   Clear
7:31 AM 30.2 °F - 28.4 °F 93% 30.33 in 10.0 mi Calm Calm - N/A   Clear
7:51 AM 30.2 °F - 28.4 °F 93% 30.33 in 10.0 mi Calm Calm - N/A   Clear
8:11 AM 30.2 °F - 30.2 °F 100% 30.33 in 10.0 mi Calm Calm - N/A   Clear
8:31 AM 30.2 °F - 28.4 °F 93% 30.33 in 10.0 mi Calm Calm - N/A   Clear
8:51 AM 32.0 °F - 32.0 °F 100% 30.33 in 10.0 mi Calm Calm - N/A   Clear
9:11 AM 33.8 °F - 32.0 °F 93% 30.33 in 10.0 mi Calm Calm - N/A   Clear
9:31 AM 33.8 °F - 32.0 °F 93% 30.32 in 10.0 mi Calm Calm - N/A   Clear
9:51 AM 33.8 °F - 30.2 °F 87% 30.31 in 10.0 mi Calm Calm - N/A   Clear
10:11 AM 35.6 °F 32.8 °F 30.2 °F 81% 30.30 in 10.0 mi East 3.5 mph - N/A   Clear
10:31 AM 37.4 °F - 32.0 °F 81% 30.29 in 10.0 mi Calm Calm - N/A   Clear
10:51 AM 41.0 °F 39.0 °F 30.2 °F 65% 30.27 in 10.0 mi SW 3.5 mph - N/A   Clear
11:11 AM 42.8 °F 40.1 °F 28.4 °F 57% 30.26 in 10.0 mi WSW 4.6 mph - N/A   Clear
11:31 AM 42.8 °F 38.0 °F 30.2 °F 61% 30.24 in 10.0 mi SSW 8.1 mph - N/A   Clear
11:51 AM 46.4 °F 41.5 °F 32.0 °F 57% 30.22 in 10.0 mi SSW 10.4 mph 17.3 mph N/A   Clear
12:12 PM 48.2 °F - 32.0 °F 54% 30.21 in 10.0 mi WSW 10.4 mph 16.1 mph N/A   Clear
12:31 PM 48.2 °F - 32.0 °F 54% 30.20 in 10.0 mi SSW 10.4 mph - N/A   Clear
12:51 PM 48.2 °F - 30.2 °F 50% 30.17 in 10.0 mi SW 11.5 mph 18.4 mph N/A   Clear
1:11 PM 51.8 °F - 32.0 °F 47% 30.16 in 10.0 mi SW 9.2 mph - N/A   Mostly Cloudy
1:31 PM 50.0 °F - 28.4 °F 43% 30.14 in 10.0 mi WSW 13.8 mph 21.9 mph N/A   Overcast
1:51 PM 50.0 °F - 30.2 °F 47% 30.12 in 10.0 mi SW 8.1 mph 18.4 mph N/A   Overcast
2:11 PM 50.0 °F - 30.2 °F 47% 30.11 in 10.0 mi SW 10.4 mph 17.3 mph N/A   Overcast
2:31 PM 50.0 °F - 30.2 °F 47% 30.08 in 10.0 mi SSW 6.9 mph 18.4 mph N/A   Overcast
2:51 PM 51.8 °F - 30.2 °F 44% 30.06 in 10.0 mi SSW 15.0 mph 24.2 mph N/A   Mostly Cloudy
3:11 PM 53.6 °F - 32.0 °F 44% 30.04 in 10.0 mi WSW 9.2 mph 17.3 mph N/A   Mostly Cloudy
3:31 PM 53.6 °F - 32.0 °F 44% 30.03 in 10.0 mi WSW 11.5 mph 20.7 mph N/A   Scattered Clouds
3:51 PM 53.6 °F - 32.0 °F 44% 30.02 in 10.0 mi SW 17.3 mph 20.7 mph N/A   Clear
4:11 PM 53.6 °F - 32.0 °F 44% 30.00 in 10.0 mi SW 9.2 mph 21.9 mph N/A   Clear
4:31 PM 53.6 °F - 32.0 °F 44% 29.98 in 10.0 mi SSW 15.0 mph 23.0 mph N/A   Clear
4:51 PM 53.6 °F - 32.0 °F 44% 29.97 in 10.0 mi SW 12.7 mph 20.7 mph N/A   Clear
5:11 PM 53.6 °F - 32.0 °F 44% 29.96 in 10.0 mi SW 15.0 mph 24.2 mph N/A   Clear
5:31 PM 53.6 °F - 32.0 °F 44% 29.94 in 10.0 mi SW 12.7 mph 21.9 mph N/A   Clear
5:51 PM 53.6 °F - 32.0 °F 44% 29.93 in 10.0 mi SW 8.1 mph 16.1 mph N/A   Clear
6:11 PM 53.6 °F - 33.8 °F 47% 29.92 in 10.0 mi WSW 12.7 mph 20.7 mph N/A   Clear
6:32 PM 53.6 °F - 33.8 °F 47% 29.90 in 10.0 mi WSW 10.4 mph 19.6 mph N/A   Clear
6:51 PM 53.6 °F - 33.8 °F 47% 29.89 in 10.0 mi WSW 8.1 mph 17.3 mph N/A   Clear
7:11 PM 53.6 °F - 33.8 °F 47% 29.88 in 10.0 mi WSW 11.5 mph 17.3 mph N/A   Clear
7:32 PM 53.6 °F - 33.8 °F 47% 29.88 in 10.0 mi SW 5.8 mph 17.3 mph N/A   Clear
7:51 PM 53.6 °F - 33.8 °F 47% 29.87 in 10.0 mi WSW 11.5 mph 19.6 mph N/A   Clear
8:11 PM 53.6 °F - 35.6 °F 51% 29.87 in 10.0 mi WSW 12.7 mph 19.6 mph N/A   Clear
8:32 PM 53.6 °F - 35.6 °F 51% 29.87 in 10.0 mi SW 11.5 mph 25.3 mph N/A   Clear
8:51 PM 53.6 °F - 35.6 °F 51% 29.86 in 10.0 mi West 15.0 mph 27.6 mph N/A   Clear
9:11 PM 53.6 °F - 33.8 °F 47% 29.86 in 10.0 mi WSW 12.7 mph 25.3 mph N/A   Clear
9:31 PM 53.6 °F - 33.8 °F 47% 29.86 in 10.0 mi WSW 12.7 mph 26.5 mph N/A   Clear
9:51 PM 53.6 °F - 33.8 °F 47% 29.85 in 10.0 mi WSW 13.8 mph 26.5 mph N/A   Scattered Clouds
10:12 PM 53.6 °F - 33.8 °F 47% 29.84 in 10.0 mi WSW 18.4 mph 28.8 mph N/A   Overcast
10:31 PM 53.6 °F - 33.8 °F 47% 29.83 in 10.0 mi WSW 17.3 mph 28.8 mph N/A   Overcast
10:51 PM 53.6 °F - 33.8 °F 47% 29.82 in 10.0 mi WSW 17.3 mph 32.2 mph N/A   Overcast
11:11 PM 53.6 °F - 33.8 °F 47% 29.81 in 10.0 mi WSW 15.0 mph 27.6 mph N/A   Overcast
11:31 PM 53.6 °F - 33.8 °F 47% 29.81 in 10.0 mi WSW 16.1 mph 27.6 mph N/A   Overcast
11:51 PM 53.6 °F - 33.8 °F 47% 29.81 in 10.0 mi WSW 13.8 mph 27.6 mph N/A   Mostly Cloudy